(473332) = 2009 OE22 = 2015 TD91

Discovered at Mount Lemmon on 2007-11-08 by Mt. Lemmon Survey.

Orbit

Orbit type: Hungaria

Note: WebGL enabled browser required.

epoch2023-09-13.0
epoch JD2460200.5
perihelion date2022-05-10.05402
perihelion JD2459709.55402
argument of perihelion (°)349.69186
ascending node (°)228.55533
inclination (°)20.47844
eccentricity0.0498635
perihelion distance (AU)1.8153591
Tisserand w.r.t. Jupiter3.9
ΔV w.r.t. Earth (km/sec)10.6
semimajor axis (AU)1.9106298
mean anomaly (°)183.21994
mean daily motion (°/day)0.37319780
aphelion distance (AU)2.006
period (years)2.64
P-vector [x]-0.77687058
P-vector [y]-0.54993724
P-vector [z]-0.30666126
Q-vector [x]0.57244848
Q-vector [y]-0.81970203
Q-vector [z]0.01978176
absolute magnitude18.0
phase slope0.15
uncertainty0
referenceMPEC 2024-A74
observations used279
oppositions7
arc length (days)5904
first opposition used2007
last opposition used2024
residual rms (arc-secs)0.81
perturbers coarse indicatorM-v
perturbers precise indicator003Ek
first observation date used2007-11-08.0
last observation date used2024-01-07.0
computer nameMPCLINUX
JD of orbit computation2457577.832686
perihelion JD uncertainty (days)1.2621E-04
argument of perihelion uncertainty (°)4.4396E-05
ascending node uncertainty (°)9.8439E-06
inclination uncertainty (°)1.1426E-05
eccentricity uncertainty 1.3006E-07
perihelion distance uncertainty (AU)2.5977E-07
Minimum Orbit Intersection Distances (in AU)
for orbit epoch: 2460200.5, reference: E2024-A74
Mercury1.36124
Venus1.0933
Earth0.80608
Mars0.25558
Jupiter2.97652
Saturn7.09918
Uranus16.7066
Neptune27.8469

Observations

286 total observations over interval: 2007 11 08.26460 – 2024 01 07.276625
These data are available for download (format description).

Date (UT) J2000 RA J2000 Dec Magn Location Ref
2007 11 08.26460 02 10 13.04 +19 03 14.5 19.9 V G96 – Mt. Lemmon Survey MPS 650785
2007 11 08.27069 02 10 12.68 +19 03 07.2 20.1 V G96 – Mt. Lemmon Survey MPS 650785
2007 11 08.27683 02 10 12.28 +19 02 59.7 19.8 V G96 – Mt. Lemmon Survey MPS 650785
2007 11 08.28310 02 10 11.89 +19 02 52.3 19.9 V G96 – Mt. Lemmon Survey MPS 650785
2007 12 05.22171 01 53 24.07 +11 00 19.0 20.5 V G96 – Mt. Lemmon Survey MPS 650785
2007 12 05.22938 01 53 23.96 +11 00 12.7 20.6 V G96 – Mt. Lemmon Survey MPS 650785
2007 12 05.23710 01 53 23.89 +11 00 06.7 20.7 V G96 – Mt. Lemmon Survey MPS 650785
2007 12 05.24478 01 53 23.78 +11 00 00.1 20.3 V G96 – Mt. Lemmon Survey MPS 650785
2009 07 30.17307 16 52 49.47 +04 40 26.3 21.1 V 691 – Steward Observatory, Kitt Peak-Spacewatch MPS 290329
2009 07 30.18911 16 52 49.72 +04 40 22.2 20.6 V 691 – Steward Observatory, Kitt Peak-Spacewatch MPS 290329
2009 07 30.20513 16 52 49.90 +04 40 18.6 20.6 V 691 – Steward Observatory, Kitt Peak-Spacewatch MPS 290329
2009 08 02.14414 16 53 45.54 +04 28 11.9   691 – Steward Observatory, Kitt Peak-Spacewatch MPS 290329
2009 08 02.15991 16 53 45.85 +04 28 08.1   691 – Steward Observatory, Kitt Peak-Spacewatch MPS 290329
2009 08 02.17568 16 53 46.18 +04 28 04.0   691 – Steward Observatory, Kitt Peak-Spacewatch MPS 290329
2014 05 25.27977 12 02 08.945 -10 30 10.16 20.3 w F51 – Pan-STARRS 1, Haleakala MPS 650785
2014 05 25.29189 12 02 09.578 -10 29 59.71 20.9 w F51 – Pan-STARRS 1, Haleakala MPS 650785
2014 05 25.31607 12 02 10.839 -10 29 39.10 20.8 w F51 – Pan-STARRS 1, Haleakala MPS 650785
2014 06 25.17767 12 41 02.18 -06 07 05.6 21.2 V G96 – Mt. Lemmon Survey MPS 650785
2014 06 25.18327 12 41 02.63 -06 07 03.9 20.1 V G96 – Mt. Lemmon Survey MPS 650785
2014 06 25.18889 12 41 03.15 -06 07 03.2 20.4 V G96 – Mt. Lemmon Survey MPS 650785
2014 06 25.19449 12 41 03.65 -06 07 01.7 21.0 V G96 – Mt. Lemmon Survey MPS 650785
2015 10 08.43582 03 55 19.920 +25 32 48.32 20.5 w F51 – Pan-STARRS 1, Haleakala MPS 631773
2015 10 08.44761 03 55 19.762 +25 32 41.06 20.9 w F51 – Pan-STARRS 1, Haleakala MPS 631773
2015 10 08.45936 03 55 19.597 +25 32 33.99 20.7 w F51 – Pan-STARRS 1, Haleakala MPS 631773
2015 10 08.47112 03 55 19.429 +25 32 26.67 20.9 w F51 – Pan-STARRS 1, Haleakala MPS 631773
2015 10 09.43320 03 55 07.555 +25 22 16.66 20.8 w F51 – Pan-STARRS 1, Haleakala MPS 631773
2015 10 09.44498 03 55 07.372 +25 22 09.17 20.6 w F51 – Pan-STARRS 1, Haleakala MPS 631773
2015 10 09.45675 03 55 07.186 +25 22 01.53 21.2 w F51 – Pan-STARRS 1, Haleakala MPS 631773
2015 10 09.46861 03 55 06.987 +25 21 54.17 20.7 w F51 – Pan-STARRS 1, Haleakala MPS 631773
2015 11 05.04493 03 35 52.66 +18 50 18.5 20.6 V L04 – ROASTERR-1 Observatory, Cluj-Napoca MPS 650785
2015 11 05.08010 03 35 50.24 +18 49 39.9 20.7 V L04 – ROASTERR-1 Observatory, Cluj-Napoca MPS 650785
2015 11 05.12317 03 35 47.31 +18 48 52.8 20.7 V L04 – ROASTERR-1 Observatory, Cluj-Napoca MPS 650785
2015 11 05.31494 03 35 34.89 +18 45 27.0 20.1 r G45 – Space Surveillance Telescope, Atom Site MPS 650785
2015 11 05.31930 03 35 34.54 +18 45 22.2 20.1 r G45 – Space Surveillance Telescope, Atom Site MPS 650785
2015 11 05.32446 03 35 34.21 +18 45 16.0 20.0 r G45 – Space Surveillance Telescope, Atom Site MPS 650785
2015 11 05.32915 03 35 33.86 +18 45 11.9 20.0 r G45 – Space Surveillance Telescope, Atom Site MPS 650785
2015 11 06.36608 03 34 23.87 +18 26 15.9 20.5 r G45 – Space Surveillance Telescope, Atom Site MPS 650785
2015 11 06.37942 03 34 22.93 +18 26 01.3 20.5 r G45 – Space Surveillance Telescope, Atom Site MPS 650785
2015 11 06.38518 03 34 22.51 +18 25 54.7 19.9 r G45 – Space Surveillance Telescope, Atom Site MPS 650785
2015 11 06.39781 03 34 21.61 +18 25 40.0 19.9 r G45 – Space Surveillance Telescope, Atom Site MPS 650785
2015 11 06.40438 03 34 21.15 +18 25 33.1 20.3 r G45 – Space Surveillance Telescope, Atom Site MPS 650785
2015 11 07.41370 03 33 12.19 +18 06 58.7 19.8 V G96 – Mt. Lemmon Survey MPS 650785
2015 11 07.41877 03 33 11.83 +18 06 53.0 19.9 V G96 – Mt. Lemmon Survey MPS 650785
2015 11 07.42387 03 33 11.48 +18 06 47.4 20.1 V G96 – Mt. Lemmon Survey MPS 650785
2015 11 07.42894 03 33 11.11 +18 06 41.8 20.2 V G96 – Mt. Lemmon Survey MPS 650785
2015 11 13.36222 03 26 14.01 +16 15 28.2 20.0 r G45 – Space Surveillance Telescope, Atom Site MPS 719600
2015 11 13.36808 03 26 13.54 +16 15 21.2 20.4 r G45 – Space Surveillance Telescope, Atom Site MPS 719600
2015 11 13.37391 03 26 13.13 +16 15 14.7 20.4 r G45 – Space Surveillance Telescope, Atom Site MPS 719600
2015 11 13.37991 03 26 12.70 +16 15 07.8 20.3 r G45 – Space Surveillance Telescope, Atom Site MPS 719600
2015 11 18.26219 03 20 27.28 +14 43 01.8 19.7 V 703 – Catalina Sky Survey MPS 650785
2015 11 18.26672 03 20 26.93 +14 42 57.7 19.6 V 703 – Catalina Sky Survey MPS 650785
2015 11 18.27128 03 20 26.56 +14 42 52.5 20.0 V 703 – Catalina Sky Survey MPS 650785
2016 01 04.25162 02 55 31.832 +05 11 53.56 21.1 w F51 – Pan-STARRS 1, Haleakala MPS 729994
2016 01 04.26448 02 55 32.018 +05 11 50.46 20.8 w F51 – Pan-STARRS 1, Haleakala MPS 729994
2016 01 04.27730 02 55 32.210 +05 11 47.27 21.6 w F51 – Pan-STARRS 1, Haleakala MPS 729994
2016 01 14.28053 02 59 56.686 +04 45 31.55 21.1 w F51 – Pan-STARRS 1, Haleakala MPS 729994
2016 01 14.30428 02 59 57.474 +04 45 29.83 21.1 w F51 – Pan-STARRS 1, Haleakala MPS 729994
2016 01 14.31604 02 59 57.873 +04 45 28.67 21.7 w F51 – Pan-STARRS 1, Haleakala MPS 729994
2020 07 31.48992 23 54 32.439 +30 41 41.75 20.8 i F51 – Pan-STARRS 1, Haleakala MPS 1227907
2020 07 31.49638 23 54 32.480 +30 41 45.09 20.6 i F51 – Pan-STARRS 1, Haleakala MPS 1227907
2020 07 31.50287 23 54 32.521 +30 41 48.51 20.9 i F51 – Pan-STARRS 1, Haleakala MPS 1227907
2020 07 31.50941 23 54 32.576 +30 41 52.62 21.7 i F51 – Pan-STARRS 1, Haleakala MPS 1227907
2020 08 01.42416 23 54 40.94 +30 49 50.6 21.3 G G96 – Mt. Lemmon Survey MPS 1227907
2020 08 01.42940 23 54 40.94 +30 49 53.7 21.6 G G96 – Mt. Lemmon Survey MPS 1227907
2020 08 01.43465 23 54 40.98 +30 49 55.9 21.3 G G96 – Mt. Lemmon Survey MPS 1227907
2020 08 01.43988 23 54 41.02 +30 49 58.8 20.7 G G96 – Mt. Lemmon Survey MPS 1227907
2020 08 01.51314 23 54 41.779 +30 50 37.86 20.9 i F51 – Pan-STARRS 1, Haleakala MPS 1227907
2020 08 01.51971 23 54 41.791 +30 50 41.41 21.4 i F51 – Pan-STARRS 1, Haleakala MPS 1227907
2020 08 01.52725 23 54 41.860 +30 50 45.23 20.8 i F51 – Pan-STARRS 1, Haleakala MPS 1227907
2020 08 01.53449 23 54 41.888 +30 50 48.87 20.7 i F51 – Pan-STARRS 1, Haleakala MPS 1227907
2020 08 03.53113 23 54 54.288 +31 07 22.92 20.8 z F51 – Pan-STARRS 1, Haleakala MPS 1227907
2020 08 03.53731 23 54 54.293 +31 07 26.08 20.7 z F51 – Pan-STARRS 1, Haleakala MPS 1227907
2020 08 03.54352 23 54 54.308 +31 07 28.79 20.8 z F51 – Pan-STARRS 1, Haleakala MPS 1227907
2020 08 03.54979 23 54 54.311 +31 07 31.78 21.5 z F51 – Pan-STARRS 1, Haleakala MPS 1227907
2020 08 04.53122 23 54 57.535 +31 15 14.47 20.5 i F51 – Pan-STARRS 1, Haleakala MPS 1227907
2020 08 04.53797 23 54 57.543 +31 15 17.36 21.2 i F51 – Pan-STARRS 1, Haleakala MPS 1227907
2020 08 04.54482 23 54 57.526 +31 15 20.51 20.7 i F51 – Pan-STARRS 1, Haleakala MPS 1227907
2020 08 04.55171 23 54 57.518 +31 15 23.80 20.6 i F51 – Pan-STARRS 1, Haleakala MPS 1227907
2020 08 07.47510 23 54 55.571 +31 36 33.66 20.6 i F51 – Pan-STARRS 1, Haleakala MPS 1238898
2020 08 07.48224 23 54 55.547 +31 36 36.37 20.8 i F51 – Pan-STARRS 1, Haleakala MPS 1238898
2020 08 07.48940 23 54 55.491 +31 36 39.56 20.9 i F51 – Pan-STARRS 1, Haleakala MPS 1238898
2020 08 07.49662 23 54 55.443 +31 36 42.50 20.4 i F51 – Pan-STARRS 1, Haleakala MPS 1238898
2020 08 10.59538 23 54 33.635 +31 56 01.33 21.1 i F51 – Pan-STARRS 1, Haleakala MPS 1238898
2020 08 10.60212 23 54 33.556 +31 56 03.70 20.5 i F51 – Pan-STARRS 1, Haleakala MPS 1238898
2020 08 10.60882 23 54 33.446 +31 56 06.00 20.4 i F51 – Pan-STARRS 1, Haleakala MPS 1238898
2020 08 11.59378 23 54 22.482 +32 01 31.28 20.3 i F51 – Pan-STARRS 1, Haleakala MPS 1238898
2020 08 11.59447 23 54 22.461 +32 01 31.44 20.6 i F51 – Pan-STARRS 1, Haleakala MPS 1238898
2020 08 11.59911 23 54 22.398 +32 01 32.88 20.5 i F51 – Pan-STARRS 1, Haleakala MPS 1238898
